Probability
0 0 0 0 3 3 6 3 0 0 0 0 0 0 0 0 0 0 0 0 0 0 0 0 0 3 3 3 3 3 0 3 3 3 0 0 0 0 0 0 0 0 0
0 0 0 0 3 0 0 0 0 0 0 0 0 0 0 0 0 0 0 0 0 0 0 0 0 0 0 3 3 3 0 3 3 3 0 0 0 0 0 0 0 0 0
0 0 0 0 0 0 0 0 0 0 0 0 0 0 0 0 0 0 0 0 0 0 0 0 0 0 0 0 3 3 0 0 0 0 0 0 0 0 0 0 0 0 0
0 0 0 0 0 0 0 0 0 0 0 0 0 0 0 0 0 0 0 0 0 0 0 0 0 0 0 0 0 3 3 0 0 0 0 0 0 0 0 0 0 0 0
0 0 0 0 0 0 0 0 0 0 0 0 0 0 0 0 0 0 0 0 0 0 0 0 0 0 0 0 0 0 0 3 0 0 0 0 0 0 0 0 0 0 0
0 0 0 0 0 0 0 0 0 0 0 0 0 0 0 0 0 0 0 0 0 0 0 0 0 0 0 0 0 0 0 0 0 0 0 0 0 0 0 0 0 0 0
0 0 0 0 0 0 0 0 0 0 0 0 0 0 0 0 0 0 0 0 0 0 0 0 0 0 0 0 0 0 0 0 0 0 0 0 0 0 0 0 0 0 0
0 0 0 0 0 0 0 0 0 0 0 0 0 0 0 0 0 0 0 0 0 0 0 0 0 0 0 0 0 0 0 0 0 0 0 0 0 0 0 0 0 0 0
0 0 0 0 0 0 0 0 0 0 0 0 0 0 0 0 0 0 0 0 0 0 0 0 0 0 0 0 0 0 0 0 0 0 3 0 0 0 0 0 0 0 0
0 0 0 0 0 0 0 0 0 0 0 0 0 0 0 0 0 0 0 0 0 0 0 0 0 0 0 0 0 0 0 0 0 0 0 0 0 0 0 0 0 0 0
0 0 0 0 0 0 0 0 0 0 0 0 0 0 0 0 0 0 0 0 0 0 0 0 0 0 0 0 0 0 0 0 0 0 0 0 0 0 0 0 0 0 0
0 0 0 0 0 0 0 0 0 0 0 0 0 0 0 0 0 0 0 0 0 0 0 0 0 0 0 0 0 0 0 0 0 0 0 0 0 0 0 0 0 0 0
0 0 0 0 0 0 0 0 0 0 0 0 0 0 0 0 0 0 0 0 0 0 0 0 0 0 0 0 0 0 0 0 0 0 0 0 0 0 0 0 0 0 0
0 0 0 0 0 0 0 0 0 0 0 0 0 0 0 0 0 0 0 0 0 0 0 0 0 0 0 0 0 0 0 0 0 0 0 0 0 0 0 0 0 0 0
0 0 0 0 0 0 0 0 0 0 0 0 0 0 0 0 0 0 0 0 0 0 0 0 0 0 0 0 0 0 0 0 0 0 0 0 0 0 0 0 0 0 0
0 0 0 0 0 0 0 0 0 0 0 0 0 0 0 0 0 0 0 0 0 0 0 0 0 0 0 0 0 0 0 0 0 0 0 0 0 0 0 0 0 0 0
0 0 0 0 0 0 0 0 0 0 0 0 0 0 0 0 0 0 0 0 0 0 0 0 0 0 0 0 0 0 0 0 0 0 0 0 0 0 0 0 0 0 0
0 0 0 0 0 0 0 0 0 0 0 0 0 0 0 0 0 0 0 0 0 0 0 0 0 0 0 0 0 0 0 0 0 0 0 0 0 0 0 0 0 0 0
0 0 0 0 0 0 0 0 0 0 0 0 0 0 0 0 0 0 0 0 0 0 0 0 0 0 0 0 0 0 0 0 0 0 0 0 0 0 0 0 0 0 0
0 0 0 0 0 0 0 0 0 0 0 0 0 0 0 0 0 0 0 0 0 0 0 0 0 0 0 0 0 0 0 0 0 0 0 0 0 0 0 0 0 0 0
0 0 0 0 0 0 0 0 0 0 0 0 0 0 0 0 0 0 0 0 0 0 0 0 0 0 0 0 0 0 0 0 0 0 0 0 0 0 0 0 0 0 0
0 0 0 0 0 0 0 0 0 0 0 0 0 0 0 0 0 0 0 0 0 0 0 0 0 0 0 0 0 0 0 0 0 0 0 0 0 0 0 0 0 0 0
0 0 0 0 0 0 0 0 0 0 0 0 0 0 0 0 0 0 0 0 0 0 0 0 0 0 0 0 0 0 0 0 0 0 0 0 0 0 0 0 0 0 0
0 0 0 0 0 0 0 0 0 0 0 0 0 0 0 0 0 0 0 0 0 0 0 0 0 0 0 0 0 0 0 0 0 0 0 0 0 0 0 0 0 0 0
0 0 0 0 0 0 0 0 0 0 0 0 0 0 0 0 0 0 0 0 0 0 0 0 0 0 0 0 0 0 0 0 0 0 0 0 0 0 0 0 0 0 0
0 0 0 0 0 0 0 0 0 0 0 0 0 0 0 0 0 0 0 0 0 0 0 0 0 0 0 0 0 0 0 0 0 0 0 0 0 0 0 0 0 0 0
Height
5772 5773 5773 5774 5774 5775 5775 5776 5776 5777 5777 5778 5778 5779 5779 5780 5780 5781 5781 5781 5781 5782 5782 5782 5782 5782 5783 5783 5783 5784 5783 5783 5784 5783 5783 5783 5782 5781 5781 5780 5779 5777 5776
5763 5763 5763 5763 5764 5765 5765 5766 5766 5767 5767 5768 5768 5769 5769 5770 5771 5771 5771 5772 5772 5772 5772 5772 5772 5773 5773 5774 5774 5774 5774 5774 5774 5774 5774 5774 5773 5772 5772 5771 5770 5769 5768
5753 5753 5753 5753 5753 5754 5754 5755 5755 5756 5756 5757 5758 5758 5759 5759 5760 5760 5761 5761 5762 5762 5762 5762 5762 5762 5763 5763 5764 5764 5764 5764 5764 5764 5764 5764 5763 5763 5762 5761 5760 5760 5759
5743 5743 5743 5743 5743 5743 5743 5743 5744 5744 5745 5746 5746 5747 5747 5748 5748 5748 5749 5749 5750 5751 5751 5751 5751 5752 5752 5752 5753 5753 5753 5753 5753 5753 5753 5753 5753 5752 5752 5751 5751 5750 5749
5733 5733 5732 5732 5731 5731 5732 5732 5732 5733 5733 5733 5734 5734 5735 5735 5735 5736 5736 5737 5738 5738 5739 5739 5739 5739 5740 5740 5741 5741 5742 5742 5742 5742 5742 5742 5741 5741 5741 5740 5740 5739 5739
5722 5722 5721 5721 5720 5720 5720 5720 5720 5721 5721 5721 5721 5722 5722 5722 5722 5722 5723 5723 5724 5725 5725 5726 5726 5727 5727 5728 5728 5729 5729 5729 5730 5729 5730 5730 5729 5729 5729 5729 5729 5728 5728
5711 5711 5710 5710 5709 5709 5709 5709 5708 5709 5708 5708 5708 5709 5709 5709 5709 5709 5709 5710 5711 5712 5712 5713 5713 5714 5714 5715 5715 5716 5716 5717 5717 5717 5717 5717 5716 5716 5716 5716 5716 5717 5717
5699 5699 5699 5698 5698 5697 5697 5696 5696 5696 5696 5695 5695 5695 5697 5698 5697 5697 5697 5697 5698 5699 5699 5700 5699 5700 5701 5701 5702 5703 5704 5704 5704 5704 5704 5704 5703 5703 5703 5704 5704 5704 5704
5687 5687 5686 5686 5686 5685 5684 5684 5683 5683 5684 5683 5682 5682 5682 5683 5685 5686 5686 5686 5685 5686 5686 5686 5687 5687 5687 5688 5689 5690 5691 5691 5691 5690 5690 5690 5690 5689 5690 5691 5691 5691 5691
5675 5674 5674 5674 5673 5673 5672 5672 5671 5671 5670 5671 5670 5669 5669 5669 5670 5673 5675 5674 5673 5673 5673 5674 5674 5674 5674 5674 5675 5676 5677 5677 5677 5677 5677 5677 5676 5676 5676 5677 5678 5678 5679
5662 5662 5662 5662 5662 5661 5661 5660 5659 5658 5657 5657 5657 5657 5657 5657 5657 5658 5661 5661 5661 5660 5660 5660 5661 5661 5661 5661 5661 5662 5663 5664 5664 5664 5664 5664 5663 5662 5663 5664 5665 5665 5666
5651 5651 5650 5650 5650 5650 5649 5648 5647 5645 5644 5644 5644 5645 5645 5645 5645 5645 5646 5648 5648 5648 5647 5647 5647 5647 5647 5647 5648 5648 5649 5650 5651 5650 5650 5651 5650 5650 5650 5651 5651 5652 5653
5639 5639 5639 5639 5639 5638 5637 5636 5634 5633 5632 5632 5633 5633 5633 5633 5633 5632 5633 5634 5635 5636 5635 5635 5634 5634 5634 5633 5634 5635 5636 5636 5637 5636 5637 5637 5637 5637 5637 5637 5638 5638 5640
5628 5628 5628 5627 5627 5626 5625 5624 5623 5622 5621 5621 5621 5621 5621 5621 5620 5620 5620 5620 5621 5623 5623 5623 5622 5621 5620 5620 5620 5621 5622 5623 5623 5623 5623 5623 5622 5622 5622 5623 5623 5625 5626
5617 5617 5616 5616 5615 5615 5614 5612 5611 5610 5610 5610 5610 5610 5610 5609 5609 5608 5608 5607 5607 5609 5611 5611 5610 5609 5607 5607 5607 5607 5609 5609 5610 5610 5610 5609 5608 5607 5607 5608 5609 5610 5611
5606 5605 5605 5604 5604 5603 5603 5601 5600 5599 5599 5598 5598 5598 5598 5598 5597 5597 5596 5595 5594 5595 5596 5598 5596 5596 5595 5594 5594 5595 5595 5596 5596 5596 5596 5595 5594 5594 5593 5594 5595 5596 5598
5595 5594 5594 5593 5593 5593 5591 5590 5589 5588 5588 5587 5587 5587 5587 5586 5586 5585 5584 5583 5583 5582 5582 5584 5583 5583 5583 5583 5583 5583 5583 5583 5583 5583 5582 5581 5581 5580 5580 5580 5581 5582 5584
5584 5583 5583 5583 5583 5582 5581 5579 5578 5577 5577 5576 5576 5576 5575 5575 5574 5573 5572 5572 5571 5570 5570 5571 5572 5572 5572 5571 5571 5572 5571 5571 5570 5570 5569 5568 5567 5567 5567 5567 5568 5569 5571
5574 5573 5572 5572 5572 5571 5570 5569 5568 5567 5566 5565 5565 5565 5564 5563 5563 5562 5561 5560 5559 5559 5559 5560 5561 5561 5561 5561 5560 5560 5560 5559 5558 5558 5557 5556 5556 5555 5555 5556 5557 5558 5560
5564 5563 5562 5561 5561 5560 5559 5558 5557 5556 5555 5555 5554 5554 5553 5552 5552 5551 5550 5549 5548 5548 5549 5549 5550 5551 5550 5550 5549 5549 5548 5547 5547 5546 5545 5545 5545 5544 5545 5546 5547 5548 5550
5554 5553 5552 5551 5550 5550 5549 5547 5546 5545 5544 5543 5543 5542 5542 5541 5541 5540 5539 5538 5538 5538 5539 5539 5540 5540 5540 5540 5539 5538 5538 5537 5536 5535 5535 5535 5535 5536 5536 5536 5537 5539 5540
5544 5543 5542 5541 5540 5540 5539 5537 5535 5534 5533 5532 5531 5531 5531 5530 5530 5529 5528 5528 5528 5528 5529 5530 5530 5530 5531 5530 5529 5528 5528 5528 5528 5528 5527 5527 5527 5527 5528 5528 5529 5530 5532
5535 5533 5532 5531 5531 5530 5529 5527 5525 5524 5523 5521 5520 5520 5520 5520 5520 5519 5519 5519 5519 5519 5519 5520 5521 5521 5521 5521 5521 5520 5519 5519 5519 5519 5518 5519 5519 5519 5520 5520 5521 5523 5524
5525 5524 5523 5522 5521 5520 5519 5518 5516 5514 5512 5511 5510 5509 5509 5510 5510 5510 5510 5511 5511 5511 5511 5511 5512 5512 5512 5511 5511 5511 5510 5510 5510 5510 5510 5511 5511 5512 5513 5514 5515 5516 5518
5516 5514 5513 5512 5512 5511 5509 5508 5506 5505 5503 5501 5500 5500 5500 5501 5501 5501 5502 5503 5503 5503 5503 5503 5503 5502 5502 5502 5502 5502 5502 5501 5502 5502 5502 5504 5504 5505 5506 5507 5508 5509 5511
5506 5505 5504 5503 5502 5501 5500 5499 5497 5496 5495 5493 5492 5492 5492 5493 5493 5493 5494 5495 5495 5495 5495 5495 5494 5493 5493 5494 5494 5494 5494 5494 5495 5496 5496 5497 5498 5498 5499 5500 5501 5503 5504
Wind_Speed
39 40 40 40 40 40 40 40 40 40 40 40 40 40 39 39 39 39 38 37 37 37 37 37 37 37 37 37 37 37 36 36 36 36 36 36 36 36 35 35 35 35 34
40 41 42 42 41 41 41 42 42 42 42 42 42 41 41 42 41 41 42 41 40 40 40 40 40 40 40 40 40 40 40 39 39 39 39 38 38 38 37 37 37 37 36
40 41 41 42 42 42 43 43 43 43 43 43 43 43 44 44 44 44 45 44 43 43 42 42 42 42 42 42 42 43 42 42 42 42 41 41 40 40 40 39 39 38 38
42 42 42 43 44 44 44 45 45 45 45 45 45 45 46 47 47 47 47 47 47 46 45 45 45 44 44 44 45 45 45 45 44 44 43 43 43 43 42 42 41 40 40
44 44 44 44 44 44 45 46 46 46 46 46 47 48 48 48 49 49 50 50 49 49 48 47 47 47 46 47 47 47 47 47 47 46 45 45 45 45 45 44 43 42 42
45 45 45 45 45 45 46 47 47 48 48 48 49 49 49 49 50 50 51 51 51 50 49 48 49 49 48 48 48 48 49 49 48 48 47 46 46 46 46 46 45 44 43
46 46 46 46 47 47 48 48 49 49 49 50 50 49 50 49 49 50 50 51 51 51 50 49 50 50 50 50 50 49 49 50 49 49 48 47 47 47 47 47 46 46 46
47 47 46 47 47 48 48 48 49 49 50 49 50 50 50 50 50 49 48 49 49 50 50 50 50 50 50 50 51 50 49 49 49 49 50 50 49 48 49 48 48 47 47
48 47 45 46 46 46 47 47 48 48 48 49 50 50 51 51 50 48 47 48 49 49 49 49 50 50 50 50 50 50 50 50 50 50 50 50 50 49 49 49 49 48 48
49 47 46 46 45 45 45 45 47 48 48 50 51 51 51 50 50 49 48 49 49 49 50 50 50 50 50 50 50 50 50 50 50 49 49 49 49 50 50 49 49 48 48
48 47 46 45 45 46 45 44 46 48 49 50 51 50 50 49 50 50 49 49 49 49 50 50 50 51 51 51 51 51 50 50 50 50 49 49 48 49 49 49 50 49 48
46 46 45 45 44 45 47 46 47 47 48 49 49 48 49 49 49 49 48 49 49 50 50 51 52 51 51 51 51 51 50 50 50 50 49 50 49 50 50 50 50 49 49
45 44 45 45 45 44 45 46 46 46 46 46 47 47 47 48 49 49 49 50 50 50 50 50 51 52 51 50 50 50 50 50 50 50 50 51 50 51 51 51 51 50 50
43 43 44 46 45 44 43 45 46 45 45 45 45 45 45 46 47 48 48 49 50 49 48 49 49 50 51 49 48 48 49 49 49 49 49 49 49 51 52 51 51 50 50
42 43 43 44 45 44 43 43 44 44 44 45 45 45 45 45 46 47 47 48 49 48 47 47 48 48 48 48 47 47 48 48 48 47 47 48 48 49 50 50 50 50 48
42 43 42 42 43 44 44 43 43 43 43 43 44 44 45 45 45 47 47 47 47 47 47 46 47 46 46 47 46 46 46 47 49 47 48 47 46 48 49 49 49 49 47
39 41 41 41 41 42 42 42 42 43 43 42 42 43 42 43 44 44 45 45 46 46 46 45 44 44 44 44 45 45 45 46 47 48 47 46 46 46 47 47 46 47 47
37 38 39 40 41 41 41 41 41 42 41 41 41 41 42 42 42 42 44 44 44 45 45 43 42 42 42 43 44 45 44 45 45 45 44 44 43 43 43 43 43 44 45
36 36 37 38 39 40 41 41 41 41 40 40 39 40 40 40 41 41 42 43 43 44 43 41 40 40 40 42 43 44 44 42 41 42 42 42 42 41 41 41 40 40 41
34 35 36 38 38 38 39 40 41 41 40 40 40 39 40 40 40 40 40 41 41 42 42 41 41 40 39 39 40 41 41 41 40 40 40 40 39 38 37 37 37 37 38
34 35 36 37 37 37 37 39 40 40 39 40 40 40 40 39 39 39 39 39 40 40 40 40 40 39 38 37 38 38 39 39 38 38 38 37 36 35 34 35 36 36 36
33 34 35 35 35 35 36 36 37 38 38 38 39 39 40 39 38 38 38 38 38 38 38 38 38 37 36 36 36 36 36 36 36 36 36 34 32 31 32 32 34 35 35
33 33 33 34 34 34 34 35 36 37 37 37 37 37 38 37 36 36 35 35 34 34 34 35 35 35 35 35 34 33 33 33 34 34 34 33 31 29 30 29 30 31 31
32 32 32 32 32 32 33 33 34 34 34 34 35 35 35 33 32 33 32 31 31 31 32 33 33 33 34 34 33 33 32 32 32 31 31 31 30 29 28 28 28 29 30
30 29 30 31 31 32 32 32 32 32 31 31 32 32 32 32 32 31 30 30 30 31 31 31 32 32 32 33 33 33 31 30 29 29 29 29 29 29 28 28 28 29 29
29 29 30 31 31 32 32 32 31 30 29 29 29 30 30 30 30 30 30 29 29 28 28 29 30 30 30 30 31 30 29 28 28 28 28 28 28 28 28 28 28 28 28
Wind_Direction
262 263 264 263 263 263 263 263 262 262 262 262 263 263 263 263 263 264 264 264 264 265 265 266 266 266 267 267 267 268 269 271 272 272 272 274 276 278 278 279 279 279 281
262 264 265 265 264 263 264 264 263 262 262 262 262 262 263 263 263 264 264 264 264 265 265 266 266 266 267 267 268 269 270 270 271 272 273 274 275 276 277 277 277 278 279
264 264 265 266 264 263 264 264 263 263 263 262 262 262 262 263 263 263 265 264 264 265 265 266 267 267 267 268 268 269 270 270 271 272 273 274 275 275 276 275 276 276 278
265 266 267 268 267 265 264 264 264 264 263 263 264 263 263 263 263 263 264 264 265 265 265 266 267 267 267 268 268 269 270 271 271 272 273 274 274 274 274 274 274 275 276
266 266 268 269 267 266 265 265 265 265 264 265 265 265 264 264 263 263 263 264 264 265 265 266 266 266 266 267 268 269 269 271 271 271 273 273 273 273 273 272 273 274 275
265 266 268 269 268 266 266 264 265 265 265 265 266 266 266 265 265 264 264 264 264 265 264 265 267 267 266 267 267 268 269 270 271 272 272 273 273 273 272 271 272 273 274
265 267 269 268 267 266 265 265 265 265 266 266 265 266 266 265 265 265 265 264 264 264 264 265 266 267 267 266 267 268 269 269 270 271 272 272 273 273 271 270 271 271 273
265 266 268 268 267 266 265 266 265 265 265 265 265 265 265 264 265 265 265 264 264 264 265 266 266 267 267 266 266 267 268 269 270 271 271 271 273 271 271 270 270 271 272
265 266 268 268 267 267 266 266 265 264 265 266 266 266 266 264 264 263 264 265 265 265 265 266 267 268 268 268 267 267 268 268 270 270 270 271 272 270 269 269 270 271 272
265 265 266 267 267 268 268 268 266 266 266 265 265 266 266 265 264 263 264 265 265 265 264 265 266 268 270 269 268 268 268 268 269 270 270 272 272 269 268 268 269 269 270
266 265 265 266 266 267 269 271 269 268 266 266 266 265 265 264 264 264 264 264 265 265 265 265 266 267 270 270 269 268 267 267 268 270 271 271 271 268 268 268 268 267 268
265 265 265 265 267 268 269 270 270 269 267 266 265 265 265 264 264 264 264 264 265 266 266 266 266 267 269 269 268 267 267 266 267 268 269 270 269 268 268 268 268 267 267
264 264 264 265 267 270 270 271 270 269 268 266 265 265 266 265 265 265 265 266 266 266 266 267 268 268 269 270 269 268 267 266 266 268 269 269 268 267 267 267 267 266 266
264 265 265 265 266 268 271 273 270 269 268 266 266 266 266 266 265 266 267 268 267 265 266 268 269 269 269 270 269 267 266 266 267 268 270 269 268 267 266 266 265 266 266
264 266 267 267 267 268 270 273 271 269 268 267 267 266 267 268 267 268 268 269 269 269 269 269 269 269 268 268 268 266 265 266 267 269 270 270 270 269 268 266 265 265 265
266 266 265 266 267 268 270 270 269 267 267 268 268 268 267 268 268 269 270 270 271 271 270 269 269 269 268 268 267 266 265 267 267 268 270 271 271 270 269 266 265 264 263
266 267 266 266 267 268 269 268 268 267 267 268 269 269 269 269 269 269 269 269 270 271 270 269 268 268 267 266 266 267 267 268 268 268 269 271 272 271 270 268 265 262 260
269 269 267 266 267 268 267 268 268 267 267 268 269 269 269 269 269 270 270 270 270 270 270 268 267 267 267 267 268 268 269 269 268 269 269 271 270 269 268 266 264 261 259
270 269 268 268 269 268 267 268 269 268 268 268 268 269 269 270 269 270 271 270 269 269 269 267 266 266 268 268 268 269 269 268 268 269 268 268 269 268 268 267 264 261 258
271 269 269 270 270 270 270 271 272 270 269 268 268 269 271 271 270 270 270 269 268 267 267 266 266 267 269 269 269 268 268 268 268 268 267 267 267 266 266 265 263 259 258
273 271 270 270 270 271 272 271 272 270 270 269 268 269 271 272 271 271 271 270 268 267 267 267 267 268 268 269 269 269 269 269 268 267 266 266 265 264 264 262 260 257 256
273 273 273 270 270 271 272 274 273 270 272 272 270 270 270 271 271 271 270 269 268 267 266 267 267 268 268 270 270 271 271 269 268 266 266 264 265 266 263 261 258 256 256
275 275 274 270 270 270 272 274 274 273 273 273 271 269 270 269 270 270 268 267 266 267 267 267 267 268 268 269 270 271 269 268 268 268 266 263 264 264 261 260 256 255 257
276 275 272 271 271 271 274 276 277 276 273 272 271 270 269 269 269 268 265 265 266 268 269 269 268 268 267 267 268 269 268 268 268 266 264 262 262 261 259 257 256 258 256
277 276 273 272 272 274 276 276 277 276 274 272 271 269 268 267 266 265 265 266 267 270 271 270 270 269 267 266 265 265 266 265 265 264 263 261 261 260 258 257 255 255 253
276 275 273 273 274 275 275 275 276 276 274 272 269 267 265 265 264 264 264 265 268 270 272 273 271 270 266 264 263 263 263 263 264 263 262 261 260 260 257 255 255 255 254